Location: Newark
(45.6439°N, 0.5436°E)
Time: 12:45:26
(UTC+00:00)

N. Korean satellite - Pass Details

Date: 22 November 2019
Orbit: 456 x 506 km, 97.2° (Epoch: 06 December)

Event Time Altitude Azimuth Distance (km) Brightness Sun altitude
Rises 04:51:21 0° 30° (NNE) 2,610 10.6 -23.2°
Reaches altitude 10° 04:54:11 10° 53° (NE) 1,711 9.9 -22.7°
Maximum altitude 04:56:25 15° 91° (E) 1,398 9.9 -22.3°
Drops below altitude 10° 04:58:37 10° 128° (SE) 1,687 10.1 -22.0°
Sets 05:01:22 0° 152° (SSE) 2,552 10.7 -21.5°
